RH
92 96 91 85 89 92 85 86 91 95 93 86 75 71 72 65 70 75 77 79 75 66 56 51 49 52 55 57 60 67 69 63 68 70 68 77 87 88 92 92 89 94 94 88 82 81 78 73 75 75 75 77 79 81 80 81 80 80 80 80 80 80 80 80 81 80 82 83 83 86 88 88 88 88 90 91 91 88 87 91 90 88 90 91 89 83 81 85 85 84 87 82 85 86 87 92 92
94 98 89 82 87 90 83 87 95 90 84 78 70 71 70 68 73 72 73 74 69 60 52 48 51 59 57 55 57 61 70 74 74 75 81 86 88 90 92 89 87 91 93 88 83 81 76 73 77 77 78 80 82 84 83 81 79 80 80 80 80 80 80 80 82 83 86 86 85 87 89 90 91 88 92 96 93 86 86 91 91 91 89 89 89 83 81 85 83 86 91 85 85 88 88 91 91
95 97 91 83 85 94 92 94 94 84 81 76 68 68 71 71 70 68 69 66 61 54 49 50 55 63 57 55 59 60 71 77 71 72 84 86 84 89 91 86 87 91 92 88 84 82 78 76 79 80 80 81 83 84 82 80 80 81 80 81 81 81 81 83 85 85 87 89 86 87 90 89 90 89 94 98 92 84 86 89 88 90 88 86 87 82 81 84 83 86 92 89 87 88 89 90 90
96 96 89 82 86 97 98 96 88 81 80 74 67 66 71 70 66 67 66 61 56 51 50 54 59 61 55 59 64 65 74 74 69 72 79 81 81 88 91 88 89 92 89 84 83 83 80 78 81 82 81 82 83 83 80 79 81 81 82 85 85 85 85 86 88 89 89 89 86 86 86 86 90 90 92 95 94 89 88 90 88 88 88 85 83 81 83 83 84 85 89 90 88 87 86 89 91
97 93 86 85 95 95 91 87 80 80 74 69 67 62 68 67 64 67 63 59 54 50 51 54 62 63 60 66 67 66 72 72 71 72 74 79 86 90 92 92 92 91 86 82 83 85 81 79 83 83 82 82 84 84 79 79 81 81 84 87 87 87 87 89 91 91 89 86 87 88 85 87 92 90 87 88 92 94 92 92 90 90 90 88 86 84 84 84 85 85 87 91 93 91 86 88 91
94 91 90 93 99 94 89 82 75 76 65 64 66 60 66 65 64 66 61 58 52 48 50 55 62 63 66 71 67 66 70 70 70 70 73 83 90 91 93 92 90 89 88 84 83 85 81 81 85 85 82 83 83 82 79 80 81 81 85 87 85 84 88 92 91 90 89 87 86 86 87 90 92 90 90 88 90 95 92 88 87 89 91 91 92 88 86 87 87 86 87 90 94 94 90 90 91
89 89 91 97 98 92 87 76 70 70 62 62 64 60 65 65 63 63 61 60 57 53 52 57 57 61 72 69 68 70 70 70 67 70 76 87 91 91 93 91 88 88 88 84 82 84 80 83 89 83 82 83 81 81 79 80 81 82 84 85 83 83 88 93 90 89 91 90 85 85 88 91 92 90 91 89 89 93 91 89 87 89 90 91 92 89 87 87 86 88 90 90 90 90 91 91 90
87 91 88 95 95 84 79 74 70 66 63 62 61 63 65 65 62 62 62 61 60 57 56 57 53 63 74 67 71 75 73 72 70 77 84 89 92 91 92 90 88 87 89 85 81 81 77 85 90 83 82 82 80 81 80 80 81 82 83 83 84 84 88 91 90 89 87 89 90 89 88 90 92 90 89 87 87 91 92 92 91 90 90 88 89 88 86 85 86 90 91 90 88 85 86 88 88
86 96 87 86 83 74 74 73 69 64 63 60 61 68 69 66 62 63 63 60 58 57 57 55 52 65 76 75 79 77 73 76 77 85 87 88 91 91 91 88 87 87 89 87 83 81 77 84 88 82 82 80 80 81 81 81 82 84 83 83 85 86 88 89 89 88 86 89 92 89 89 90 90 86 84 83 85 89 89 90 89 87 86 86 87 85 85 86 85 88 91 90 86 82 82 85 88
86 97 90 81 77 75 73 66 64 60 60 58 60 68 68 65 62 62 62 62 58 57 59 54 56 66 74 80 81 74 75 81 81 85 86 86 90 91 89 87 88 88 90 87 85 84 79 83 86 82 82 81 81 80 80 81 82 84 83 84 86 87 87 87 89 89 90 91 90 89 90 88 85 83 84 84 84 86 86 86 85 84 85 85 84 82 85 89 84 83 89 87 82 82 84 84 86
92 93 88 84 83 83 72 61 59 56 59 61 64 68 64 61 63 63 63 63 58 59 60 56 64 69 72 81 82 77 78 82 79 83 87 87 89 89 88 88 89 88 88 86 85 84 80 84 85 81 80 80 80 80 82 81 82 84 83 83 84 85 86 86 88 89 91 92 91 92 90 85 83 85 87 88 86 86 87 85 84 84 85 86 86 84 85 88 87 86 90 87 81 83 85 85 86
96 87 78 82 84 79 70 64 60 57 62 64 67 69 61 59 64 64 65 65 61 60 58 59 65 64 71 82 83 80 78 78 78 83 88 86 86 88 88 88 89 88 85 85 85 83 82 85 83 79 78 80 79 81 83 81 82 82 80 80 81 84 84 85 87 88 91 93 94 92 90 85 84 87 88 89 89 87 86 86 88 88 86 87 89 89 87 86 89 89 90 85 80 82 84 85 86
98 88 74 75 76 72 70 66 61 61 63 59 63 67 59 58 62 61 63 63 59 59 58 58 59 59 71 79 80 78 73 75 79 84 87 84 84 88 90 88 89 88 85 86 86 83 83 86 85 80 76 78 79 81 82 80 81 80 78 80 83 84 83 85 88 88 90 91 91 87 86 84 82 84 85 87 90 85 81 84 89 89 87 88 88 88 86 83 85 87 89 87 82 84 85 85 86
95 82 74 79 73 69 69 64 58 59 57 55 63 65 58 60 62 58 61 64 60 57 56 54 53 61 76 83 86 77 69 76 81 84 85 84 85 88 90 89 89 89 87 86 84 85 85 87 89 81 76 77 78 79 80 79 80 80 79 82 86 85 83 86 87 86 90 90 86 84 81 79 77 79 84 89 91 86 82 82 84 86 86 85 86 86 84 81 82 84 88 89 85 86 86 87 89
89 70 73 84 74 68 66 60 57 54 51 56 64 61 60 63 62 59 58 61 61 54 53 55 51 57 70 80 83 72 70 78 81 84 84 85 87 88 90 90 89 88 88 86 84 87 87 88 88 80 76 78 78 78 77 76 80 80 81 84 87 85 84 87 86 85 88 87 83 82 78 76 77 77 83 89 88 86 83 82 83 85 83 83 85 86 83 80 83 86 86 87 87 89 90 90 91
79 67 75 81 72 69 61 57 55 52 51 58 63 58 63 65 57 59 56 55 61 55 53 57 53 53 60 65 67 65 72 79 80 83 83 85 87 88 90 91 89 87 89 89 86 87 86 87 87 81 76 77 80 82 77 75 79 81 82 86 86 86 87 87 87 85 84 84 83 83 79 78 79 76 80 86 83 81 81 81 84 84 82 81 83 84 81 81 86 88 86 83 83 87 90 88 87
73 75 81 79 74 69 57 55 50 47 52 61 64 57 63 66 57 57 54 51 59 58 54 56 53 52 55 57 60 66 75 78 80 81 81 85 87 88 90 89 89 87 89 89 86 85 85 84 82 81 76 77 81 82 78 76 78 80 82 85 86 87 89 87 87 85 83 84 84 82 78 77 78 76 78 82 80 80 84 86 86 87 86 83 82 81 80 80 84 88 87 85 83 84 83 79 79
77 83 80 76 73 66 55 53 47 43 52 61 63 56 57 64 61 56 55 57 57 58 58 56 56 55 56 60 64 70 75 77 79 78 78 82 83 85 87 86 86 84 87 90 87 83 83 82 81 80 76 75 78 77 77 77 76 79 80 82 84 86 87 87 85 84 85 85 83 79 77 76 76 76 77 78 79 82 85 89 88 88 87 86 85 82 83 84 86 92 93 89 86 85 83 78 80
75 77 76 71 65 62 54 51 48 43 48 57 60 55 54 57 60 56 58 62 59 62 64 60 64 65 63 66 68 72 75 75 77 75 74 77 78 81 83 82 82 82 84 87 89 85 82 83 82 84 82 75 76 76 76 77 75 74 76 78 81 83 84 85 85 84 85 85 82 79 78 78 76 77 75 73 77 81 85 90 90 89 88 87 87 87 88 87 88 91 90 84 81 84 87 84 85
68 68 72 66 59 60 54 51 52 46 46 54 57 55 54 54 56 55 58 62 60 63 65 63 68 69 67 68 68 72 73 72 75 73 72 75 75 77 79 78 78 81 83 86 90 87 83 84 84 89 89 81 78 76 76 79 77 74 77 78 78 81 81 82 84 85 84 85 83 80 79 78 77 79 74 70 74 79 83 87 89 90 91 87 85 89 88 85 86 86 82 77 75 81 86 85 88
65 65 68 60 57 59 53 51 51 47 46 50 53 55 55 54 54 54 57 63 62 60 58 59 64 66 67 67 66 69 69 69 72 71 71 73 73 74 76 77 77 80 83 85 89 89 86 88 89 89 90 89 85 80 80 80 76 79 82 75 73 76 77 78 82 85 85 85 83 82 81 76 78 80 75 74 76 77 80 84 86 87 90 88 85 92 92 87 89 89 87 82 76 80 82 81 86
64 65 63 57 56 57 54 49 48 46 46 49 52 54 53 53 55 54 55 57 57 54 51 54 58 62 64 64 64 65 65 65 68 69 70 71 71 72 74 76 77 80 84 84 87 90 90 91 91 89 90 91 89 87 87 82 78 86 87 73 67 72 75 76 77 81 83 84 83 83 83 79 80 81 78 78 77 75 79 82 84 83 86 86 83 91 91 87 90 90 91 88 82 83 82 77 77
65 63 59 58 56 59 57 51 49 46 45 49 50 49 49 55 58 54 52 49 47 48 49 52 57 59 61 61 62 62 62 62 64 68 69 70 70 71 73 75 77 79 83 85 86 90 92 91 91 90 90 90 90 91 89 86 84 91 89 74 69 73 76 78 77 75 77 81 80 79 82 84 85 85 80 78 77 80 80 77 77 76 81 80 75 84 89 86 90 89 89 88 86 87 83 77 75
66 63 57 56 53 56 53 49 47 42 41 42 43 46 50 56 56 53 53 47 45 49 50 53 57 59 61 61 61 61 61 61 64 67 69 70 70 71 72 74 76 79 82 84 86 88 91 91 91 90 90 90 90 91 90 89 88 91 89 80 75 71 75 85 79 68 70 77 77 75 81 85 86 86 83 80 78 80 77 71 69 69 75 74 70 80 88 87 87 88 87 85 86 87 84 81 80
65 63 55 52 50 49 45 42 41 37 37 37 41 47 48 50 50 53 53 46 47 50 52 55 58 61 62 62 62 61 61 61 63 66 69 70 71 72 73 74 76 79 80 82 84 87 89 90 92 90 90 91 90 91 91 89 89 89 88 88 82 70 77 84 68 59 66 76 80 78 79 83 86 86 86 84 81 82 76 67 66 67 68 70 74 80 83 83 82 83 84 85 86 86 84 82 81
54 56 53 51 48 44 41 39 38 35 34 36 42 45 44 45 47 52 50 46 50 52 55 57 59 63 64 63 62 61 61 61 61 65 68 70 72 73 74 75 76 78 78 81 84 86 88 90 91 91 90 91 91 91 90 90 90 89 88 89 84 76 79 70 54 60 68 74 80 81 79 81 86 88 89 86 82 85 82 73 72 73 73 73 80 83 79 77 77 78 80 86 88 87 84 79 77
42 46 47 48 46 42 41 39 37 35 33 34 39 40 40 42 46 49 47 47 51 54 58 58 60 63 62 62 62 62 61 60 62 66 68 69 73 74 74 74 76 77 78 82 84 85 87 89 89 91 91 90 90 90 91 91 91 91 90 88 85 82 77 59 53 64 66 67 72 78 81 79 82 86 88 86 84 87 88 88 83 82 86 84 83 83 78 74 75 75 77 84 87 86 80 73 73
36 40 41 41 39 37 35 34 33 32 32 32 34 37 37 42 47 44 44 49 51 55 60 59 60 61 60 61 61 64 62 61 64 66 66 68 72 73 73 74 75 77 79 81 84 86 87 87 88 90 91 90 89 89 90 91 91 91 90 88 87 85 77 62 58 60 57 56 59 70 80 78 78 82 85 86 86 88 89 92 87 83 88 85 80 79 77 75 75 74 76 81 82 81 78 71 71
32 36 39 38 33 32 29 27 29 30 31 30 32 39 40 43 44 39 44 50 51 56 60 60 60 59 60 60 61 64 63 63 64 64 65 67 71 72 73 74 74 77 79 81 84 86 87 87 87 89 92 90 87 86 86 90 91 90 88 85 82 81 77 65 55 54 51 49 53 65 76 77 77 77 81 84 86 89 87 87 86 83 83 81 78 77 77 78 78 79 79 82 81 80 79 76 73
32 33 36 38 35 32 28 25 27 29 30 29 33 42 44 41 37 37 45 50 52 57 60 60 59 59 60 59 61 63 62 63 63 64 67 68 71 72 73 74 75 77 78 81 83 85 86 87 87 89 91 91 87 79 76 83 87 86 84 77 72 72 71 58 48 50 51 52 57 66 73 76 77 76 77 79 82 87 86 84 83 83 80 78 80 79 79 81 81 84 85 86 86 83 81 78 74
30 29 31 35 38 33 27 27 29 30 30 28 32 41 41 35 33 39 46 50 53 58 59 59 59 60 60 59 60 61 61 63 63 65 68 70 72 73 74 76 77 78 79 81 83 85 86 87 88 89 90 92 89 74 65 72 75 75 75 71 65 61 57 50 48 52 53 57 64 70 74 74 76 77 76 77 79 83 87 86 82 82 80 79 82 80 80 82 82 85 87 88 87 84 81 77 73
26 25 26 29 34 31 25 27 29 30 30 29 32 38 36 30 33 43 47 49 52 55 58 59 60 60 60 59 59 60 60 62 63 65 68 70 71 72 74 76 77 79 80 82 84 86 87 87 90 90 90 93 90 76 64 63 63 64 66 63 58 50 46 46 48 52 54 59 68 74 75 74 77 77 77 77 77 78 84 88 83 78 78 80 81 78 79 82 83 85 84 85 87 85 82 76 71
26 24 24 28 31 28 24 26 26 27 30 32 32 35 34 29 34 45 48 49 50 54 58 59 60 60 60 60 58 59 60 61 62 63 66 68 69 71 74 75 77 78 80 83 86 87 87 88 90 90 90 90 88 82 69 59 55 56 58 56 54 47 43 45 46 50 53 58 68 76 75 74 77 77 77 77 76 76 77 83 83 76 76 80 79 77 79 81 84 89 84 80 86 88 81 72 70
29 27 25 28 30 25 26 27 24 24 28 33 33 33 32 30 37 47 49 49 50 54 57 58 60 60 61 60 58 59 60 61 62 62 65 67 68 70 72 75 76 77 79 83 85 88 87 88 90 90 90 88 88 86 76 65 55 51 54 53 50 46 43 45 46 47 50 54 63 73 76 76 75 76 77 77 76 76 74 78 80 76 76 79 78 79 79 80 83 87 86 80 80 86 83 73 68
27 31 28 28 29 27 28 28 25 24 27 30 34 35 32 30 40 48 48 49 50 52 55 57 58 60 62 62 60 59 60 60 60 61 64 66 68 70 71 73 76 77 78 81 84 88 89 88 89 90 90 90 91 88 83 80 68 54 53 54 52 49 44 43 44 46 47 52 62 70 74 76 75 75 75 76 77 75 73 75 77 76 77 77 78 81 81 81 80 81 84 83 78 79 78 72 66
25 29 29 28 27 26 27 26 23 23 27 28 31 34 32 30 39 48 49 49 50 51 54 57 58 60 62 63 61 60 61 59 57 60 63 65 67 69 70 72 74 76 77 80 84 89 89 88 89 90 91 91 91 91 91 92 82 69 65 64 62 56 46 41 41 44 46 51 63 71 73 75 75 74 73 74 76 75 73 74 76 77 77 77 78 82 86 85 83 85 85 84 84 81 74 66 62
26 27 30 30 27 26 25 25 21 19 24 25 26 30 29 28 34 43 48 50 51 52 56 59 59 60 62 62 61 61 61 56 56 60 62 64 66 68 69 71 73 75 77 80 83 88 89 88 88 89 91 91 92 92 90 90 85 78 77 73 68 61 51 43 40 40 42 49 63 72 72 73 74 74 73 73 75 77 74 73 75 77 78 79 78 81 85 83 82 85 84 83 87 86 75 63 60
27 28 29 30 29 26 23 23 20 19 24 24 24 27 28 27 29 37 46 52 52 51 55 59 58 59 60 61 61 60 59 56 56 60 62 63 65 66 69 70 72 73 76 80 81 84 87 88 89 90 90 91 92 88 82 84 79 69 67 63 60 62 55 45 43 39 36 42 59 71 71 71 72 73 73 72 74 77 76 74 75 76 78 79 80 79 80 81 80 82 84 85 86 85 76 62 58
25 27 29 31 29 26 25 22 18 18 23 24 23 25 25 24 26 35 44 50 51 48 50 54 57 59 59 60 61 60 60 59 58 59 60 62 63 65 67 69 70 72 74 78 79 82 86 88 89 90 90 91 92 86 76 74 69 59 58 53 49 58 57 49 49 43 35 38 53 68 70 70 71 71 72 73 74 76 77 76 75 76 78 79 80 80 79 80 80 81 85 89 88 85 76 60 56
22 24 29 31 28 28 27 23 19 18 20 21 22 23 22 22 27 35 41 45 47 46 47 49 52 57 57 56 57 59 60 61 61 59 59 60 62 64 66 68 69 70 72 75 77 80 84 87 90 90 91 90 88 84 76 70 68 63 62 56 47 52 55 51 49 43 35 36 49 66 69 69 70 70 71 71 73 76 76 78 77 77 78 78 80 79 80 83 82 83 86 90 88 81 74 61 55
18 20 26 29 28 28 26 23 20 18 18 18 20 25 25 22 27 33 38 43 45 46 48 50 52 53 54 54 55 57 57 59 60 59 58 58 61 63 65 67 68 68 71 73 75 77 80 84 88 89 88 87 83 81 79 78 78 75 74 72 65 63 64 64 62 59 51 41 50 67 68 67 70 70 71 71 72 74 75 78 79 79 79 78 79 78 82 85 84 86 87 90 89 79 73 65 58
19 19 21 24 27 28 27 25 24 25 26 20 19 31 32 24 23 26 35 46 48 47 49 51 53 54 54 55 56 55 54 56 57 57 57 57 60 63 65 67 67 67 69 71 73 74 77 81 86 87 86 86 85 83 82 82 82 82 82 83 81 78 79 79 71 67 61 47 54 71 67 66 70 69 71 71 71 72 74 77 78 80 81 78 78 78 80 81 81 86 88 88 90 82 76 70 62
20 20 19 23 26 28 29 27 28 31 30 22 20 30 34 28 24 23 33 46 49 49 51 50 51 54 54 54 54 54 53 53 55 55 55 56 58 61 64 67 66 66 67 70 72 73 76 81 84 86 86 87 87 86 85 84 85 86 83 80 81 79 79 78 64 56 53 39 46 67 66 65 69 69 71 70 71 72 72 75 78 80 82 79 79 77 78 81 81 85 86 86 89 85 80 74 65
20 21 21 24 26 28 29 28 30 29 27 25 21 23 31 30 26 25 31 43 48 50 51 49 48 51 52 51 51 52 52 52 54 55 55 55 57 59 62 65 65 64 66 68 70 72 76 81 83 83 85 86 87 87 85 84 85 88 85 82 83 78 73 73 63 54 50 37 41 61 65 66 68 68 70 69 70 72 71 73 76 79 82 80 79 76 76 80 81 83 83 84 85 83 82 79 71
18 21 22 23 24 26 26 27 30 27 29 35 27 22 31 31 25 27 32 38 46 51 52 49 48 49 49 49 49 49 50 51 51 53 54 55 56 58 60 63 64 64 64 67 69 71 76 80 81 82 84 86 86 85 84 83 83 84 85 85 86 80 74 73 67 61 57 49 51 62 65 66 67 68 70 69 69 71 72 73 74 77 79 77 76 77 78 78 79 82 83 83 82 83 83 80 78
16 21 22 21 23 24 25 27 28 29 36 42 32 25 31 33 24 25 33 37 40 46 48 47 46 47 48 47 47 47 49 50 50 50 52 54 55 57 58 60 62 63 63 66 68 70 75 78 80 82 84 86 86 84 84 85 84 84 85 86 86 82 80 79 76 73 68 63 65 69 68 67 67 68 69 69 69 70 71 72 73 75 75 75 75 77 76 74 77 80 81 83 82 83 85 81 81
17 20 22 23 25 25 27 27 27 35 42 39 31 25 29 35 27 21 29 34 32 36 42 45 45 46 47 46 45 45 47 49 50 49 50 52 55 56 57 58 61 62 63 65 68 69 72 76 79 82 83 85 86 84 83 85 86 86 86 84 83 82 82 82 81 81 77 73 74 76 73 70 68 69 69 69 69 69 70 72 73 74 75 74 73 74 75 74 77 78 78 82 83 83 85 84 82
18 19 20 27 30 29 32 33 33 43 44 32 27 25 27 35 31 20 22 25 25 28 33 39 43 44 45 45 43 43 45 47 48 49 49 51 54 55 56 57 59 61 63 64 66 67 71 75 78 82 84 84 86 85 84 85 86 88 87 84 82 82 83 82 82 83 79 75 78 80 76 74 72 70 70 70 69 68 70 70 72 76 80 78 72 73 75 75 77 77 75 79 82 82 83 84 84
19 19 22 31 37 40 42 40 40 43 39 28 23 24 27 31 27 20 20 21 20 21 23 30 37 40 42 44 43 42 43 44 46 47 48 50 52 54 54 57 59 62 63 64 65 66 69 74 78 81 83 84 85 85 85 86 86 88 87 85 83 83 82 81 80 82 78 73 75 79 78 76 75 73 73 73 71 69 68 69 70 73 77 76 71 70 72 71 72 72 69 72 80 82 82 82 83
23 22 25 32 38 46 49 43 41 41 35 26 21 24 28 26 21 18 18 17 17 18 19 23 30 35 39 41 41 41 42 43 44 46 47 48 51 52 53 55 59 62 63 63 64 65 69 73 77 80 82 83 84 85 86 87 87 86 85 84 84 84 83 82 81 81 78 72 71 74 75 76 76 74 73 72 69 67 66 67 68 67 68 69 68 69 70 70 72 72 67 67 76 80 81 83 83
25 22 24 30 33 40 43 40 40 39 33 27 24 27 28 24 21 18 15 14 14 16 16 20 26 31 34 37 37 39 41 41 43 44 45 47 49 51 51 54 58 60 61 61 63 66 70 73 76 79 82 84 85 85 86 87 87 86 85 84 84 83 83 83 81 80 77 71 69 72 72 72 74 73 70 67 64 64 65 65 66 65 65 65 66 67 68 69 74 80 78 72 75 78 80 84 84
24 21 26 31 29 30 34 34 33 33 31 30 28 28 25 20 20 17 14 15 14 14 15 17 23 26 30 33 35 37 39 39 42 43 45 46 47 50 51 52 56 58 59 60 62 67 70 73 76 78 80 83 84 85 86 86 86 87 86 85 84 83 82 84 83 79 75 71 68 69 67 66 69 70 67 65 63 63 64 65 65 65 63 63 64 65 67 68 72 83 89 85 84 84 83 84 84
25 25 28 28 23 26 33 35 33 32 35 34 28 26 22 19 18 14 13 15 14 15 15 15 18 24 29 31 32 34 36 38 40 42 44 45 46 48 50 50 53 55 58 59 62 67 69 72 75 77 80 82 83 84 84 85 86 87 87 85 85 84 83 83 82 78 77 75 71 68 68 66 66 68 67 65 65 64 64 66 66 66 64 62 63 63 65 67 69 81 92 92 91 89 87 88 87
27 28 25 23 23 25 31 38 39 37 38 35 27 24 23 21 21 16 13 14 14 15 16 14 17 23 27 28 30 33 34 36 39 41 43 45 45 46 47 48 50 53 55 59 64 67 69 71 72 74 78 80 82 83 83 84 86 86 87 86 85 85 83 82 81 80 80 81 77 72 72 71 68 68 68 67 67 66 66 67 67 68 65 63 64 64 65 65 68 81 93 93 91 91 90 90 89
24 24 21 24 30 31 33 40 43 42 42 37 29 26 22 21 20 16 14 14 13 14 17 17 17 21 24 24 28 33 33 36 38 40 42 43 43 44 45 46 47 50 54 58 62 64 66 68 69 71 75 77 79 80 81 84 85 84 86 86 85 84 83 82 82 83 83 82 80 76 75 73 70 70 69 68 69 69 69 69 68 68 67 65 64 64 66 65 68 83 93 91 91 93 92 91 90
22 22 21 23 28 30 32 35 36 39 42 39 34 29 24 20 17 14 14 14 12 13 18 19 18 20 24 24 26 30 33 36 38 38 40 42 41 42 43 44 44 48 52 55 58 59 61 64 68 69 71 74 77 77 80 84 84 83 85 86 86 85 84 84 84 84 83 81 80 78 76 75 73 72 71 70 70 70 70 69 69 71 71 69 67 65 68 67 69 85 94 89 89 92 91 92 92
25 26 26 26 26 26 28 30 28 31 39 40 37 34 26 19 16 13 13 14 13 13 17 21 19 18 22 24 25 29 33 35 36 36 37 39 39 39 41 43 43 45 50 52 53 56 57 60 64 67 68 72 74 75 79 83 82 82 85 85 86 86 85 85 84 84 82 81 82 79 77 77 75 73 72 72 71 70 70 69 71 74 74 73 69 66 67 68 70 83 93 92 89 89 90 92 93
29 28 28 29 29 29 33 36 30 26 31 35 36 36 27 17 17 16 10 11 14 13 15 18 18 17 21 24 25 29 33 34 34 34 34 36 38 38 39 42 43 44 48 49 50 52 55 57 60 63 66 68 70 72 77 81 81 83 85 84 84 85 85 85 84 84 83 83 84 81 77 77 77 74 72 72 72 71 70 70 72 74 74 73 70 67 68 70 70 77 88 93 91 90 90 92 93
Wind_Speed
13 14 14 13 13 10 7 3 1 2 2 2 3 2 1 1 1 2 4 5 4 5 5 8 13 9 6 5 7 7 6 4 1 1 4 4 15 23 16 19 25 22 21 21 21 21 20 20 20 20 20 20 20 20 20 19 19 19 19 19 18 18 17 17 17 17 16 15 15 14 14 13 13 13 13 14 14 12 12 12 10 10 11 11 12 12 13 13 11 12 11 10 11 11 12 13 13
13 14 14 13 13 7 3 2 2 1 2 2 1 1 1 1 2 3 5 5 4 7 8 11 11 5 6 9 9 8 7 5 3 3 5 13 21 18 17 22 26 22 20 21 21 20 20 19 20 20 20 20 19 19 19 19 19 19 19 18 18 18 17 17 16 16 15 15 15 14 13 13 12 12 12 13 14 12 12 13 11 10 10 11 11 12 12 12 11 12 11 11 12 12 12 13 13
13 14 14 13 9 2 1 1 2 0 1 1 0 1 0 2 3 4 5 4 7 10 11 12 9 5 8 11 6 5 5 3 5 8 9 19 19 14 20 24 25 21 19 20 20 20 19 19 20 20 20 19 19 19 19 19 19 18 18 18 18 18 17 17 16 16 15 15 14 14 13 13 12 12 12 13 14 11 11 12 11 9 10 11 11 12 12 10 11 12 11 11 12 11 12 13 13
13 14 15 11 4 2 1 2 1 1 1 1 0 1 1 3 5 5 6 7 11 13 13 12 7 3 4 9 5 5 6 4 8 11 12 17 16 20 24 23 22 19 21 21 20 20 19 20 20 20 19 19 19 19 19 19 18 18 18 18 18 17 17 17 16 16 15 15 14 13 13 12 12 11 11 12 13 12 11 12 11 10 10 11 11 12 12 10 11 11 11 11 12 11 11 12 12
11 12 13 7 1 1 2 1 1 1 1 1 1 1 2 4 5 6 7 9 12 14 13 9 5 3 4 6 2 2 7 7 10 13 16 16 18 25 24 22 21 20 22 22 21 20 18 20 20 19 19 18 19 19 19 18 18 18 17 17 17 17 17 16 16 15 15 14 13 13 13 12 12 12 11 12 13 13 12 11 11 11 11 11 11 12 11 10 11 11 10 11 12 11 10 11 11
11 10 8 4 2 1 2 1 1 3 2 2 2 2 4 4 5 8 10 10 11 12 11 6 6 7 6 6 4 4 6 7 12 15 18 20 22 26 24 23 21 21 22 21 21 19 19 19 18 19 18 18 18 19 18 18 17 17 17 17 17 17 16 15 15 15 14 13 13 13 13 12 11 12 12 12 13 13 13 11 10 11 11 11 11 11 11 11 11 10 10 10 11 11 11 10 10
11 8 3 4 2 2 2 2 2 3 1 2 2 1 4 5 7 11 12 11 10 9 6 6 9 9 5 4 4 5 3 5 12 16 20 24 26 26 25 24 22 22 22 22 21 19 19 18 18 18 18 18 17 18 18 17 17 16 16 16 17 16 15 15 14 14 14 13 13 13 12 12 12 12 11 12 12 13 13 12 10 10 11 11 10 10 11 11 12 11 10 10 10 11 11 10 10
9 4 2 3 1 1 2 3 3 3 1 1 2 1 3 6 8 10 12 10 10 9 7 9 9 7 5 3 4 3 3 8 13 18 23 26 28 27 24 24 23 22 22 23 21 20 19 17 18 18 18 17 17 17 17 17 17 16 16 16 16 15 15 14 14 14 13 13 13 12 12 12 12 12 11 12 12 12 13 13 11 11 10 11 10 10 11 11 11 11 10 11 10 11 11 10 9
6 2 1 2 2 1 3 4 3 3 3 3 2 1 3 6 7 9 11 8 9 10 10 9 5 4 7 5 5 4 5 11 16 21 25 28 28 26 24 23 24 23 21 22 21 20 18 17 17 18 18 17 16 16 16 16 16 16 15 15 15 15 14 14 14 13 13 13 12 12 12 12 12 12 12 12 12 12 13 13 12 12 11 10 10 10 11 11 10 10 11 11 10 10 11 10 9
4 2 1 1 1 2 3 2 2 2 2 2 2 3 5 6 6 8 9 9 10 10 9 6 4 7 9 7 5 4 8 15 21 24 26 28 27 25 24 22 22 23 22 21 21 19 18 17 17 18 17 16 16 16 16 16 15 15 15 15 14 14 14 14 13 13 13 12 12 12 12 13 13 13 13 12 12 12 13 13 12 12 11 10 10 11 11 11 10 10 11 10 10 10 10 10 9
3 2 2 1 1 3 3 1 2 1 1 1 2 3 5 6 7 7 8 9 9 9 9 6 7 11 10 6 4 5 12 19 24 26 26 27 26 24 23 21 21 21 22 21 20 19 18 17 17 18 17 16 16 16 16 15 15 15 15 14 14 14 14 13 13 12 12 12 12 12 13 13 13 13 12 11 12 12 12 13 13 12 11 11 11 11 11 11 10 11 10 9 10 10 10 10 9
2 2 2 1 2 3 3 3 3 1 1 3 3 4 5 7 7 8 9 9 9 9 8 6 8 10 9 6 3 8 16 21 24 27 27 27 26 24 22 21 20 20 22 21 20 19 18 16 17 17 16 15 15 15 15 15 14 14 14 14 14 14 13 13 13 12 12 12 12 13 12 12 13 12 11 11 11 12 12 12 12 11 12 11 11 10 10 11 11 11 9 8 10 10 11 10 10
1 2 1 1 2 3 4 4 3 1 1 3 4 5 7 7 7 9 9 9 10 9 6 7 10 8 6 6 6 10 16 22 25 26 27 26 25 23 21 21 20 21 21 20 19 20 18 17 17 17 16 15 15 15 14 14 14 14 14 14 13 13 13 13 12 12 12 12 12 13 13 12 12 11 11 11 11 11 12 12 11 11 11 10 10 10 10 11 11 11 10 8 9 9 10 9 9
2 2 1 1 3 4 5 4 2 2 1 3 5 7 8 5 6 8 9 10 8 5 7 10 12 8 7 7 6 8 15 24 26 26 26 25 24 23 21 21 20 21 20 20 20 20 18 17 17 17 16 15 15 15 14 13 13 13 13 13 13 12 12 12 12 12 12 12 12 12 13 12 12 11 11 11 10 11 12 11 11 11 10 10 10 10 10 10 10 10 10 9 8 8 9 9 9
2 1 1 1 3 3 4 3 2 1 2 5 7 9 8 3 6 8 7 9 5 6 10 9 9 5 7 10 8 11 19 27 27 26 26 23 23 22 21 20 20 20 19 19 20 19 18 17 17 17 17 16 15 15 14 13 13 13 13 12 12 12 12 11 12 12 12 12 12 12 12 12 12 11 11 11 10 12 12 12 11 10 10 10 10 9 10 9 10 9 8 8 8 9 9 9 9
3 1 1 2 3 3 2 2 1 1 2 6 8 10 9 5 7 6 4 6 7 8 8 7 7 2 7 12 11 20 27 29 29 27 26 24 23 22 22 21 19 18 17 18 19 19 18 17 17 17 17 16 15 15 14 13 12 12 12 12 11 11 11 11 12 12 12 12 11 11 11 11 11 11 11 10 11 11 12 12 12 11 10 11 10 10 9 9 9 9 8 7 8 9 9 9 9
2 1 3 3 3 2 1 2 1 1 3 7 9 10 9 7 6 4 4 7 10 10 5 5 5 0 6 11 17 28 30 30 29 27 26 25 23 23 22 21 19 18 17 17 19 19 18 18 17 17 17 16 15 15 14 13 13 12 12 11 11 11 11 11 12 12 12 11 11 11 11 11 11 10 10 10 10 11 11 11 11 10 10 10 10 9 9 9 9 9 9 9 9 9 9 10 10
4 3 4 4 3 3 1 1 2 2 2 8 10 10 9 10 8 6 7 8 10 9 5 7 6 6 10 16 25 31 31 32 30 29 27 25 23 22 21 21 21 19 18 18 19 19 19 18 17 17 17 16 15 15 14 13 13 12 11 11 11 10 11 11 11 12 11 10 10 10 10 10 10 9 9 9 9 10 11 10 9 9 10 10 9 9 9 8 8 8 9 9 9 9 9 10 10
6 3 4 5 3 2 2 3 3 3 2 8 10 9 7 9 11 9 8 9 11 9 7 8 10 11 15 21 29 31 31 32 29 29 28 25 24 23 22 22 21 20 19 18 19 20 19 18 18 17 17 16 15 15 15 13 13 12 11 11 11 10 10 10 10 11 11 10 9 9 9 8 9 8 8 9 8 8 9 9 8 8 9 8 8 9 8 8 8 8 8 9 9 8 8 9 10
6 5 5 5 4 4 4 5 5 3 1 7 10 8 6 8 10 8 8 11 11 9 9 10 11 14 16 22 28 30 31 30 29 29 27 26 25 24 24 23 22 21 20 19 19 21 20 19 18 16 15 16 16 15 15 14 13 13 11 11 11 10 10 10 9 9 10 9 9 8 8 8 8 7 7 8 7 7 8 8 7 7 8 7 7 7 7 7 7 7 7 7 7 7 7 8 8
6 7 5 2 2 4 2 2 5 4 2 5 8 9 8 8 8 8 10 11 9 10 12 13 15 18 20 22 26 30 30 29 30 28 27 27 26 25 23 23 22 20 20 18 18 20 21 18 17 16 15 15 15 15 15 14 13 12 11 11 11 10 10 10 9 9 8 8 8 8 7 8 7 6 6 7 6 6 6 6 6 6 6 6 6 6 5 6 5 5 6 6 6 6 6 6 6
5 8 7 4 2 3 1 1 2 2 1 4 7 9 8 8 8 9 13 11 6 8 12 14 18 20 23 25 26 28 28 27 29 28 28 28 27 26 24 23 22 21 20 19 19 19 20 18 17 16 15 15 14 14 14 14 13 11 10 12 12 10 9 9 9 8 8 8 8 7 7 8 7 6 6 6 5 5 5 5 5 5 5 4 5 5 4 4 4 4 5 5 5 5 4 4 4
6 7 8 8 6 6 4 3 4 5 2 4 6 7 7 10 9 10 15 9 1 6 12 15 18 21 25 27 26 26 26 25 27 29 29 28 28 27 26 25 23 23 21 20 20 19 19 19 18 17 16 16 14 13 13 13 13 10 10 11 12 11 10 9 8 8 8 8 8 8 7 7 6 5 5 5 5 4 4 4 3 3 3 3 4 4 3 4 4 4 4 4 4 4 3 3 4
9 8 8 9 8 10 9 7 8 8 6 6 5 7 9 12 9 9 15 7 4 9 15 17 18 22 25 24 24 24 25 26 27 28 28 27 27 26 25 25 23 22 21 21 20 19 20 19 18 18 17 16 15 14 13 12 12 11 10 10 11 12 10 8 8 9 9 9 8 8 8 6 5 5 5 5 4 4 3 3 3 3 3 2 3 3 3 3 3 3 4 4 4 3 3 3 3
12 11 6 6 7 8 8 8 8 8 7 5 6 9 11 13 6 7 14 7 8 13 17 19 19 21 22 22 23 23 23 26 27 28 27 26 25 25 24 23 23 22 22 23 21 20 21 20 19 18 17 16 15 14 14 13 12 11 10 10 10 12 10 9 10 10 10 9 8 7 7 6 5 4 4 5 4 4 3 3 3 3 2 2 2 2 2 2 2 3 3 4 3 3 3 3 2
11 13 7 6 7 7 7 9 9 8 6 3 8 10 11 11 5 6 12 9 12 16 18 20 20 20 20 20 21 22 23 25 28 28 27 26 25 26 25 24 24 23 23 22 21 21 21 21 20 19 18 17 15 15 14 13 11 11 11 10 10 10 10 11 11 10 9 9 8 7 7 6 5 4 4 4 4 4 3 3 2 2 2 2 1 0 1 2 2 1 2 3 3 3 2 2 2
5 11 12 12 12 10 11 12 11 9 7 7 9 9 9 11 7 6 9 12 14 17 18 19 20 20 19 19 19 20 22 25 28 28 26 26 26 26 26 25 23 23 23 23 21 21 21 21 21 20 19 17 16 16 14 13 11 11 11 10 9 9 10 12 12 10 10 10 9 8 7 6 5 4 4 3 3 3 2 2 1 2 1 2 1 1 1 1 1 1 1 2 2 2 2 2 2
3 6 8 12 12 12 12 13 12 8 7 8 10 9 7 10 10 8 10 15 16 18 18 19 19 18 18 19 18 17 18 24 28 27 27 27 27 27 27 26 25 24 24 24 22 21 21 22 21 20 19 17 17 17 15 14 12 11 10 10 9 9 9 11 11 11 11 11 10 8 7 6 5 5 4 3 2 2 1 1 0 1 1 2 2 1 1 1 1 1 1 1 2 2 1 1 2
7 6 8 9 9 11 12 12 10 6 6 6 7 7 6 10 12 10 13 16 16 17 18 18 18 16 17 18 16 14 17 23 26 26 28 27 26 26 27 26 26 25 23 24 23 22 22 21 21 20 19 18 18 19 18 15 13 12 11 11 10 9 9 11 12 12 12 12 10 9 8 7 6 5 5 4 3 2 1 0 0 1 1 1 1 1 1 1 1 1 1 1 2 2 1 1 2
7 7 8 7 7 8 8 9 9 8 7 6 7 5 4 10 13 11 14 17 17 17 17 17 16 14 15 16 14 15 17 21 24 25 27 26 24 24 25 25 25 24 22 24 24 23 22 21 21 20 20 19 19 22 22 18 16 14 13 13 12 11 11 12 13 13 12 12 10 10 9 8 7 7 6 5 4 3 2 1 1 1 2 2 1 0 0 1 1 2 2 2 2 2 1 1 2
7 6 6 6 6 5 3 3 7 9 6 9 9 6 5 9 11 13 15 19 19 16 17 16 15 14 15 15 15 16 17 20 24 25 25 25 23 23 24 24 24 23 22 25 25 25 24 22 21 20 21 21 20 24 26 23 21 18 16 15 14 14 14 14 14 13 12 12 11 10 9 9 9 8 8 7 6 5 3 2 1 2 2 2 1 1 0 0 1 2 2 2 2 2 2 2 3
6 5 6 7 6 7 6 4 7 8 5 10 11 5 5 7 9 15 15 19 20 17 17 17 16 17 16 15 15 15 16 20 24 25 25 25 24 23 24 25 25 24 24 24 25 25 25 23 22 20 21 21 21 24 27 26 25 22 20 18 17 17 16 16 15 13 12 12 11 11 10 9 9 9 9 8 7 6 5 3 2 2 3 2 2 1 1 0 1 2 2 3 3 3 3 3 4
5 6 6 6 7 9 7 4 8 10 5 9 13 6 4 4 8 15 16 19 19 16 17 17 17 17 16 15 14 15 15 18 21 24 26 26 24 24 24 25 26 26 25 25 25 26 26 24 23 21 21 23 22 23 26 27 27 25 23 21 19 19 18 17 15 14 13 12 12 11 10 9 9 9 9 8 8 8 6 4 3 3 4 3 3 2 1 1 1 2 2 3 3 3 2 3 3
5 6 6 5 8 10 6 2 4 10 9 9 12 11 7 2 8 14 17 19 18 15 16 18 16 15 15 14 14 15 16 17 18 23 28 26 25 25 24 25 26 26 24 25 26 27 26 25 24 22 21 22 22 22 24 26 27 27 24 23 22 21 20 18 17 16 14 13 13 12 10 9 9 9 9 9 8 9 7 6 4 4 5 4 4 2 1 2 1 1 2 2 3 4 3 2 2
8 7 6 5 7 10 8 4 1 5 10 11 11 12 11 5 8 13 16 18 18 16 16 16 16 16 15 14 15 16 17 18 19 24 29 27 26 25 24 25 25 25 24 25 26 26 26 25 23 23 22 22 21 20 19 19 23 27 25 24 24 22 21 20 19 18 16 14 14 13 11 10 9 9 9 9 8 9 8 7 6 5 5 5 4 4 2 1 1 1 2 2 2 3 3 2 1
9 8 6 6 7 8 7 5 2 1 6 10 11 11 12 9 9 12 14 17 18 16 14 13 14 14 14 14 14 16 17 18 20 25 28 28 27 26 25 25 25 25 25 25 25 25 26 25 24 24 22 22 21 18 17 16 20 25 24 23 23 23 23 22 21 20 18 16 15 14 12 11 10 9 10 10 9 8 8 7 7 6 6 6 5 4 3 2 1 1 1 1 1 1 2 1 2
3 6 7 8 9 8 6 5 4 3 4 7 9 10 13 11 10 13 14 16 16 14 14 14 14 14 15 16 16 18 18 16 18 23 27 27 27 26 25 24 25 26 25 26 27 26 27 27 26 25 24 23 22 21 21 21 22 24 23 22 22 22 24 23 22 22 20 18 17 15 14 12 11 10 11 12 11 9 8 8 8 8 7 7 6 5 3 2 2 2 2 1 0 0 1 1 2
5 4 6 7 8 8 6 4 3 4 5 6 7 9 12 12 11 11 13 15 16 16 16 16 17 16 14 17 19 18 15 13 16 20 24 27 27 27 26 25 27 28 27 28 28 28 28 28 27 27 25 25 25 26 27 26 27 29 26 26 24 21 23 24 23 23 22 20 18 16 15 13 12 11 12 13 12 11 10 9 9 9 8 7 6 5 4 3 3 2 2 1 1 1 1 0 3
10 5 4 5 5 5 6 6 4 4 5 6 6 8 11 11 10 12 14 15 15 17 18 18 19 18 16 17 18 17 15 15 17 19 23 27 28 28 28 26 27 28 28 28 29 29 28 29 28 27 26 26 27 30 32 31 31 32 29 27 26 21 21 23 22 22 23 21 19 18 16 15 13 12 12 13 13 13 11 10 10 10 9 8 7 6 5 4 4 3 3 2 1 2 2 1 4
11 8 6 5 3 3 6 3 1 3 6 8 6 7 9 8 7 10 15 16 15 16 19 17 17 18 18 18 17 17 18 18 18 19 21 25 28 29 29 27 27 28 27 29 30 30 30 29 29 29 29 29 31 33 35 34 32 31 29 27 26 22 20 21 21 23 23 23 21 20 18 16 14 13 12 13 14 14 13 12 11 11 10 9 7 7 6 5 5 5 4 4 3 4 3 2 5
13 13 11 8 5 6 5 1 3 4 7 8 6 7 8 8 8 9 12 14 14 14 15 14 14 15 14 13 15 16 18 18 19 20 21 23 27 29 29 28 28 28 29 30 31 31 30 30 31 32 32 32 34 35 35 33 30 28 26 23 20 19 18 17 18 19 22 23 22 20 20 18 16 14 13 13 14 14 14 13 12 11 11 10 9 8 7 6 6 6 5 6 6 6 5 4 5
10 15 16 12 8 8 7 6 6 5 6 5 4 8 8 7 11 10 9 12 14 13 14 16 15 13 13 12 15 17 17 17 18 20 21 22 26 28 29 29 29 30 30 30 31 30 29 29 31 34 33 33 34 34 34 33 31 28 25 21 18 17 15 16 19 19 21 24 22 20 21 19 17 16 14 14 14 14 14 14 13 12 11 11 10 9 8 7 7 7 6 6 6 6 6 4 5
8 11 15 15 11 9 10 10 7 5 5 2 3 8 6 4 9 10 10 13 16 15 15 18 16 14 15 14 15 16 17 17 16 18 19 21 25 27 29 31 32 31 30 29 29 29 29 28 31 34 33 32 32 32 34 33 30 27 28 26 22 21 18 19 24 24 22 25 24 22 22 20 18 17 16 15 14 14 14 14 14 13 12 11 10 10 10 9 8 7 6 6 6 7 7 6 5
8 6 10 13 13 13 13 11 9 6 6 6 7 8 7 6 6 6 10 13 16 16 17 18 16 16 18 17 16 17 18 18 17 18 19 20 24 28 30 32 33 30 28 28 29 30 30 30 32 35 33 32 32 33 35 35 32 29 29 26 22 23 22 21 26 25 23 25 25 24 23 21 20 18 17 16 15 15 15 15 15 14 13 12 11 11 11 10 8 7 6 6 7 7 8 8 6
7 5 9 11 13 15 13 11 9 7 6 9 9 7 6 8 5 3 8 13 14 16 18 18 17 18 19 18 19 19 19 19 18 19 20 21 25 30 31 31 31 30 29 29 30 29 29 30 32 34 33 32 33 35 36 36 35 33 31 26 22 24 23 21 23 24 24 24 24 24 23 22 21 20 19 18 18 17 17 16 16 15 14 13 13 12 12 11 9 8 8 7 8 7 7 8 8
6 6 7 8 11 14 12 11 9 8 9 11 10 8 7 9 6 6 7 10 13 13 15 16 17 18 19 18 19 19 18 17 18 19 19 22 27 30 30 29 30 31 30 29 28 28 27 29 31 33 33 32 33 36 36 36 36 34 32 29 25 24 23 20 19 20 22 23 22 23 23 23 22 21 20 20 20 19 18 17 17 16 15 14 14 13 13 13 11 10 9 8 8 7 7 8 9
7 7 7 5 6 8 9 9 7 8 11 13 13 11 8 10 8 8 8 7 9 10 11 13 15 17 18 17 17 17 16 16 17 18 19 22 26 27 28 29 30 31 29 28 28 28 28 29 31 33 34 32 32 36 37 36 35 34 33 32 30 27 24 21 20 19 21 23 22 22 23 24 23 23 22 21 21 21 20 18 18 18 17 16 15 14 14 14 13 12 11 9 8 8 8 8 10
10 9 9 5 4 4 5 5 6 10 10 10 14 13 11 12 8 8 8 7 9 11 12 14 16 18 17 17 17 17 16 16 17 17 17 19 21 24 27 29 29 30 30 29 29 29 28 30 31 32 33 33 33 35 37 36 35 33 33 33 33 30 26 24 23 21 23 24 22 22 23 24 24 24 24 23 22 22 22 20 19 18 16 16 16 15 14 14 13 13 12 10 9 9 9 9 10
11 10 9 8 6 5 6 7 6 10 8 4 9 11 12 13 9 8 8 7 11 13 12 14 17 18 17 18 18 16 16 17 17 16 16 17 18 20 26 28 29 30 30 30 30 30 29 29 31 32 33 35 34 34 36 36 35 34 34 34 34 32 29 28 27 24 25 27 24 23 24 24 25 25 25 25 23 23 23 21 20 19 17 17 17 16 15 14 14 14 13 12 11 10 10 10 10
12 11 10 10 8 7 9 8 7 8 7 4 6 7 10 11 8 11 14 13 13 13 12 12 15 17 17 18 18 17 17 17 16 16 17 18 18 20 25 28 29 30 31 31 31 31 29 29 31 32 32 34 35 34 35 35 35 35 36 36 34 32 31 30 29 26 26 29 28 26 26 25 26 27 26 26 25 24 24 22 21 20 19 19 19 17 16 14 13 13 14 14 13 12 11 10 11
12 11 11 10 9 8 8 7 7 7 5 6 9 7 7 6 3 5 12 16 16 14 15 13 12 14 15 15 16 17 17 17 16 17 19 19 19 22 26 27 29 30 32 32 32 31 29 29 32 33 32 33 34 34 34 34 35 35 36 36 34 34 32 30 30 29 28 31 31 29 29 28 27 27 27 27 25 24 24 24 22 21 20 19 19 18 17 15 13 11 11 13 13 13 12 11 12
10 10 11 11 10 8 5 5 5 4 5 7 9 6 4 2 5 4 5 10 14 16 18 17 15 13 12 12 14 15 16 17 17 17 19 20 20 23 26 26 28 30 32 34 33 33 32 30 32 34 33 34 35 35 34 34 35 34 35 36 35 34 33 30 29 32 32 32 32 31 31 31 29 28 28 27 25 24 24 24 23 22 21 20 19 19 18 17 15 11 9 10 11 12 12 12 12
5 10 12 10 9 9 7 5 3 3 7 6 6 8 7 5 10 10 7 7 10 14 16 18 17 14 13 12 13 15 16 17 18 18 19 20 20 23 27 28 29 31 33 35 34 34 34 33 33 34 33 33 35 36 35 35 34 33 34 36 35 33 34 31 30 33 32 31 33 33 32 31 31 29 28 27 26 25 25 25 24 23 22 21 20 20 19 19 17 13 10 10 11 12 12 12 12
3 7 9 7 8 10 8 7 5 6 9 5 5 10 10 7 7 8 12 12 11 12 14 17 16 14 14 14 14 16 17 18 20 20 20 19 20 23 28 30 32 34 35 35 34 34 34 34 34 35 34 34 35 35 35 34 34 33 33 34 34 33 33 31 29 30 30 29 31 33 31 31 31 30 28 28 27 26 26 25 25 24 23 22 20 20 20 20 19 14 10 10 11 11 11 11 11
7 5 4 6 9 10 8 7 8 9 9 6 6 9 9 9 6 4 11 16 15 12 12 14 14 14 15 15 15 17 17 17 18 18 17 17 19 23 28 31 32 34 33 33 34 34 34 35 35 36 36 36 36 35 33 33 34 33 31 33 35 35 34 31 28 27 28 29 29 31 31 31 31 30 29 28 27 27 26 26 26 25 25 24 22 22 21 21 20 15 11 11 11 10 11 12 12
10 8 5 7 7 7 9 8 7 7 8 7 7 8 8 9 7 7 10 14 17 15 11 11 13 14 14 14 15 16 15 15 16 17 17 18 20 25 31 33 33 34 34 33 34 35 35 36 34 34 35 35 35 35 33 33 34 32 31 32 34 35 35 32 29 29 30 30 30 31 32 31 31 31 30 29 28 28 27 27 27 26 25 25 24 23 22 22 21 15 11 12 12 11 12 13 13
5 5 6 7 5 4 7 8 8 8 7 6 6 7 7 5 5 9 12 11 14 16 12 9 11 14 15 15 14 14 15 16 17 16 18 20 21 25 32 34 33 32 32 32 34 35 35 35 34 35 35 34 35 35 34 34 34 32 31 33 34 34 34 32 30 30 32 31 30 32 32 31 31 31 30 29 29 29 28 28 27 26 25 25 25 25 24 23 23 18 12 12 12 12 13 14 14
2 2 2 3 3 4 7 9 10 9 9 7 6 7 6 3 3 7 12 12 12 14 14 11 11 13 15 15 15 15 14 16 17 17 19 20 19 23 29 31 30 30 31 34 36 35 35 36 36 36 35 35 36 35 33 33 33 32 33 34 33 32 33 31 29 29 30 29 30 32 33 32 31 31 31 31 30 30 29 29 27 26 26 26 26 26 25 24 24 22 16 13 13 14 14 15 15
Wind_Direction
144 152 150 148 144 141 148 182 222 168 242 286 284 298 154 196 227 168 138 145 153 152 139 134 143 139 133 132 131 91 49 130 129 92 119 101 133 141 142 145 147 142 140 137 133 131 132 135 133 133 132 133 132 132 132 132 133 132 132 132 132 132 132 133 132 133 131 131 132 131 130 128 127 122 120 121 120 122 122 116 115 116 111 109 107 105 105 102 100 100 100 102 103 103 103 105 103
149 152 146 145 148 156 140 203 262 151 241 293 274 266 78 150 168 138 139 157 142 138 136 134 131 108 107 109 121 107 62 41 38 81 98 128 132 137 145 148 148 142 139 137 133 132 135 137 136 136 134 134 133 131 132 132 133 132 132 131 130 130 129 129 129 129 127 128 127 125 124 121 119 117 119 118 117 123 123 116 116 115 111 107 104 105 106 104 103 101 100 100 100 103 105 105 105
155 150 144 146 151 217 88 176 265 21 266 308 260 131 122 162 129 108 135 143 129 134 132 132 118 94 126 128 126 113 90 54 113 113 121 140 136 144 152 150 148 141 139 138 134 134 139 140 138 137 136 135 133 131 131 132 132 131 131 131 130 130 130 128 127 126 125 123 120 119 119 116 116 117 117 113 112 117 116 113 118 116 110 107 105 104 104 103 102 100 101 100 100 104 105 104 104
156 154 150 150 148 262 205 190 257 331 271 289 317 117 197 146 110 107 129 128 130 137 136 135 117 68 136 135 116 82 109 129 135 128 138 149 144 148 152 150 146 140 141 139 136 138 141 142 140 138 136 135 133 132 132 132 131 130 129 128 128 128 127 125 124 122 119 117 116 116 116 115 115 116 114 109 111 115 114 114 118 115 105 104 102 103 107 105 100 99 102 102 101 99 97 98 98
153 159 162 170 160 215 231 225 182 236 240 290 350 94 161 135 111 114 123 133 140 145 146 143 118 88 74 93 68 99 121 130 143 142 142 147 143 145 149 148 145 144 144 140 139 140 142 144 141 138 136 136 135 133 132 132 130 130 129 127 126 125 123 122 120 117 116 116 116 116 115 115 112 111 110 108 112 115 115 116 118 117 111 107 103 106 112 108 100 99 101 102 102 99 95 93 94
150 153 171 230 297 247 257 244 217 240 261 257 280 75 138 131 117 122 124 134 143 148 147 137 118 120 97 63 38 100 116 131 149 151 146 146 146 147 148 148 147 147 145 142 142 140 143 145 141 138 137 137 136 133 133 132 131 131 128 126 124 124 123 119 118 116 115 116 116 116 114 112 109 107 107 106 108 109 112 115 114 113 113 111 108 108 112 108 102 101 101 101 101 102 101 99 100
152 145 173 249 274 238 268 282 272 267 271 230 242 82 134 131 124 130 133 139 142 145 136 125 124 119 106 92 93 90 89 140 149 153 150 146 146 148 148 148 148 147 146 144 142 141 145 145 141 140 139 138 135 134 134 133 132 130 127 125 124 124 121 116 116 116 115 114 114 115 114 111 108 106 104 103 103 104 108 111 109 107 106 105 104 105 109 108 105 105 100 98 97 98 100 102 104
164 163 190 226 269 227 295 295 283 275 242 215 229 63 128 137 139 141 141 146 151 152 138 139 140 114 101 126 122 86 101 145 148 148 147 146 147 149 150 150 147 147 147 146 144 142 147 146 142 141 140 139 137 137 136 136 133 130 128 126 124 122 118 116 116 114 114 114 112 112 113 110 108 107 105 102 101 103 105 109 110 108 105 102 102 101 106 107 107 107 97 94 95 95 96 97 99
177 229 234 219 308 315 299 284 278 262 248 252 214 130 130 146 148 148 147 145 150 152 146 152 166 125 117 114 110 107 128 145 145 142 145 148 149 150 151 152 149 148 147 147 144 143 148 149 144 142 142 141 141 141 138 136 133 130 128 125 123 121 119 118 116 113 112 111 110 109 109 107 107 107 105 101 99 99 101 104 107 108 107 106 104 99 103 106 105 104 96 93 92 89 89 90 93
172 244 269 242 324 289 287 265 263 262 248 257 192 156 148 159 153 151 148 142 148 145 137 131 112 125 130 114 104 122 139 145 143 142 148 150 151 151 151 153 150 147 146 146 145 145 151 151 146 144 144 143 144 142 138 136 133 129 126 125 123 122 121 118 117 114 113 110 109 109 107 106 105 103 101 100 98 99 99 101 104 106 108 106 102 97 99 104 103 99 97 94 90 86 85 88 92
170 196 237 255 266 259 280 263 264 288 227 177 150 164 161 159 145 142 137 133 143 139 139 131 112 124 125 113 103 128 141 148 148 147 151 153 153 151 151 152 150 148 145 146 147 148 152 151 147 146 146 146 146 142 138 135 132 129 126 127 125 124 123 120 119 117 116 116 113 110 107 104 102 100 100 100 99 99 99 101 103 104 104 101 99 97 98 103 102 96 94 89 87 90 91 93 96
183 172 207 258 265 249 276 294 292 310 189 191 167 162 164 163 147 143 141 137 144 143 154 162 140 134 123 117 123 138 146 153 153 150 152 154 154 151 151 152 151 149 146 147 149 151 153 152 149 147 148 148 147 142 137 136 132 131 128 127 126 124 123 121 120 118 118 117 115 110 106 102 99 101 102 101 100 99 100 101 102 100 98 97 98 99 99 101 101 100 96 79 73 82 89 97 103
201 182 201 249 259 259 278 288 287 264 191 188 168 155 161 169 160 152 144 140 152 154 155 152 145 135 113 120 134 145 152 156 154 152 152 154 155 152 150 152 152 149 148 149 151 153 154 154 150 149 151 150 148 143 139 139 135 132 130 127 126 125 124 122 120 119 118 113 111 109 106 104 103 105 103 99 98 99 100 100 101 99 99 99 99 97 97 97 99 102 100 85 74 80 86 95 101
199 195 220 268 264 270 269 268 273 249 162 134 141 148 161 167 155 152 141 140 151 144 133 142 144 125 109 129 143 156 158 157 154 152 153 154 155 154 150 152 152 150 150 152 155 156 156 156 152 151 153 153 149 145 142 141 136 134 131 128 127 126 126 123 120 119 116 113 112 110 109 108 107 106 103 99 97 97 97 98 100 100 103 103 100 97 94 93 93 97 101 100 93 89 86 86 90
202 200 192 258 271 268 248 243 285 263 124 134 147 149 151 135 146 153 150 146 129 118 125 141 161 139 144 160 166 166 159 157 156 153 153 152 154 153 150 152 153 152 152 154 159 157 158 158 154 155 157 155 152 148 146 143 138 135 131 129 129 128 127 124 122 119 117 116 114 112 112 110 108 106 104 102 98 97 97 99 99 98 102 100 100 98 94 92 90 93 100 104 101 95 91 89 90
205 212 208 255 265 258 222 218 257 255 117 136 150 153 140 124 155 152 143 134 117 139 139 152 183 181 163 170 164 160 158 156 155 153 152 151 153 152 152 154 154 155 155 157 163 160 160 161 158 159 160 158 155 150 148 145 140 137 133 131 130 128 127 127 124 121 120 118 118 119 118 115 112 110 107 106 101 98 99 98 96 96 99 99 100 98 94 92 91 92 89 89 91 92 94 93 92
197 217 232 244 239 242 232 216 261 49 114 141 157 166 145 134 158 128 124 133 131 152 145 141 169 9 159 159 151 155 156 155 155 154 153 153 154 155 155 156 156 159 161 163 166 164 163 165 164 163 163 161 158 153 149 147 143 140 136 133 131 130 129 130 128 126 125 124 126 126 124 122 118 116 113 112 108 104 103 97 94 97 98 96 96 96 94 91 91 92 89 84 77 77 82 81 79
189 199 228 237 226 230 232 230 334 356 146 154 168 180 159 147 156 140 140 142 138 148 127 118 105 80 124 134 145 153 154 155 157 157 156 157 159 158 158 159 161 163 164 167 170 168 167 169 169 166 166 165 162 158 152 149 148 146 142 139 135 135 134 134 134 133 131 130 132 130 128 127 124 121 120 119 115 109 106 100 100 103 101 97 94 94 92 90 89 91 92 91 86 84 84 79 78
199 201 226 233 215 209 244 275 314 338 142 159 174 188 179 158 154 159 163 153 149 148 130 123 107 104 121 135 147 153 155 158 160 161 160 161 163 162 161 162 165 165 166 169 172 172 171 172 173 169 169 168 167 163 157 154 155 153 149 146 142 141 141 138 138 138 137 134 134 135 134 133 131 127 128 129 123 116 110 109 111 106 104 102 101 99 95 93 88 87 86 85 89 97 99 94 94
203 212 231 236 231 243 265 266 280 316 136 169 179 184 191 165 154 172 171 159 167 169 152 146 137 134 139 145 151 155 159 162 163 164 164 164 166 166 165 165 167 167 168 169 171 174 174 174 175 173 172 171 171 169 163 160 161 161 156 154 152 149 147 144 144 143 141 138 137 140 140 140 136 131 135 137 132 125 118 120 122 114 111 109 108 102 97 96 89 85 79 78 84 89 97 99 102
193 208 228 228 216 238 246 259 269 276 224 190 181 180 188 171 165 178 163 159 187 195 178 165 153 147 149 152 155 159 163 164 166 167 166 167 169 169 169 168 168 167 168 168 171 176 176 175 175 177 176 173 174 173 169 168 166 164 162 164 163 160 157 153 152 149 144 143 143 142 143 147 142 137 140 143 143 138 131 127 127 125 120 117 115 105 98 95 85 81 75 78 82 81 89 90 95
208 218 233 235 226 248 278 27 290 329 210 200 185 185 178 164 180 186 174 177 199 199 185 163 151 151 155 157 159 163 166 167 169 170 169 170 171 171 171 169 168 166 168 170 173 177 177 177 177 178 179 177 178 175 173 173 170 167 168 171 173 173 170 166 162 158 153 149 150 147 149 152 145 142 142 148 152 147 144 134 130 133 126 124 121 112 107 100 90 85 80 80 81 81 80 70 70
229 231 237 238 252 264 283 296 296 341 304 219 194 187 163 166 194 195 193 201 130 155 164 151 149 153 155 158 162 166 169 171 172 172 172 172 173 174 173 171 170 168 171 173 173 177 178 179 180 179 180 180 180 178 175 175 174 173 175 177 179 182 180 176 173 168 163 157 157 156 155 155 148 146 145 149 154 151 158 153 145 145 136 133 125 118 109 102 102 95 89 88 84 84 79 62 55
236 248 247 241 250 256 269 287 291 311 292 258 206 184 177 186 197 193 202 213 99 133 145 143 147 152 154 160 167 169 169 172 174 175 174 174 176 175 174 173 171 170 172 173 174 178 180 182 183 182 183 182 182 182 179 177 179 179 181 181 185 191 188 183 181 176 169 163 164 166 164 162 156 152 145 142 142 142 157 165 164 161 154 148 131 122 109 104 110 99 95 94 88 91 87 82 70
231 242 256 245 249 257 267 279 285 294 288 264 196 194 198 195 184 186 206 199 133 138 138 142 147 151 158 164 168 170 170 172 174 175 176 177 177 176 176 175 173 173 174 174 176 180 182 183 184 185 185 184 183 184 183 183 182 182 184 186 192 196 194 193 187 180 176 171 170 175 177 176 171 164 154 144 137 130 139 151 155 163 172 168 142 123 125 122 118 104 100 97 93 99 92 94 88
224 233 256 259 256 268 276 280 280 286 285 240 201 212 207 191 175 197 206 182 141 140 141 146 151 157 163 166 168 170 172 173 174 176 177 177 178 179 179 177 176 178 177 175 177 181 183 184 187 187 186 186 185 185 186 186 184 184 188 189 195 198 200 203 193 184 185 184 182 182 187 190 182 179 174 153 144 135 130 137 145 165 189 190 166 129 152 143 129 111 99 94 89 102 104 118 109
211 230 251 259 267 274 276 277 273 278 276 243 227 236 212 183 192 209 186 166 146 142 148 152 156 163 166 168 168 171 174 176 175 174 176 178 181 182 181 180 180 180 178 178 180 182 183 186 189 189 188 188 187 188 188 187 186 187 190 191 194 197 201 206 198 191 193 194 194 190 193 197 192 189 188 171 155 146 132 133 152 185 228 234 223 228 189 158 141 121 108 98 81 101 122 147 153
244 240 257 257 267 270 266 267 265 265 262 237 228 245 216 177 205 216 166 158 154 148 154 159 163 166 168 170 169 172 176 176 176 176 179 181 182 183 182 182 181 180 181 182 181 182 184 187 190 191 191 190 190 192 191 190 190 189 191 193 195 198 198 202 201 198 197 199 200 197 200 201 201 200 196 193 178 167 159 138 141 190 235 239 212 189 162 138 126 113 120 107 75 96 107 148 171
249 259 274 270 278 273 260 255 252 242 243 221 210 243 217 191 216 208 161 159 160 154 158 164 166 167 169 171 171 175 176 176 179 182 184 184 183 183 183 183 182 181 182 182 182 183 186 187 190 192 193 193 194 196 196 193 193 193 193 196 197 197 197 202 206 204 201 202 204 205 208 207 210 214 212 212 211 228 251 239 256 197 208 205 171 156 126 74 71 85 101 86 70 68 66 124 158
233 244 260 277 286 274 258 241 232 229 233 181 180 246 227 210 217 186 158 163 163 160 165 168 169 168 171 174 174 177 178 180 183 186 186 185 184 184 183 184 183 181 181 182 183 185 186 187 190 193 194 197 197 200 203 201 199 198 196 200 202 201 205 208 209 208 206 205 208 212 214 215 218 222 226 229 231 245 263 264 244 227 217 215 209 183 78 52 66 73 81 72 66 64 74 120 135
217 226 238 253 262 257 242 218 209 213 208 169 188 253 248 224 202 171 162 167 167 168 171 170 171 170 172 176 178 179 181 185 187 187 186 185 184 184 183 183 182 182 181 183 185 185 186 188 189 192 195 198 199 204 207 207 207 206 203 204 204 205 210 213 212 211 210 210 212 216 217 220 225 228 233 237 239 245 257 261 240 233 229 236 251 233 200 54 60 58 65 66 69 78 96 115 130
204 211 223 220 233 254 248 218 207 214 190 174 196 244 250 235 185 167 168 171 173 173 174 173 174 174 174 177 179 182 185 188 190 190 188 186 185 184 184 183 183 184 184 183 184 185 187 190 191 192 195 197 200 205 208 211 213 212 212 212 211 211 213 215 216 214 215 216 215 218 219 221 227 233 236 239 243 244 247 251 241 231 230 235 231 199 187 222 34 29 40 60 73 84 99 115 129
201 213 227 202 208 243 249 223 222 225 203 182 202 235 260 228 171 168 170 176 178 176 176 176 176 176 176 178 180 183 185 188 192 194 191 189 188 187 185 185 186 187 187 185 184 185 188 191 193 195 196 198 200 204 209 213 215 217 218 219 220 218 217 219 221 220 220 220 219 220 219 221 228 234 238 240 244 245 243 242 239 228 223 224 221 199 205 268 337 9 27 59 75 78 86 108 123
197 212 226 206 208 232 239 233 228 220 216 204 208 232 253 201 157 172 175 179 182 180 179 178 178 178 178 179 181 184 186 189 193 194 192 189 190 189 187 187 188 188 189 189 188 188 189 190 193 196 197 199 200 203 208 212 216 219 222 224 227 226 224 224 225 226 227 227 225 222 219 221 228 235 240 242 243 245 240 232 230 225 221 222 223 226 248 285 306 342 14 43 72 73 54 56 120
203 202 212 211 216 231 232 223 194 196 214 216 210 226 243 217 159 178 182 181 187 187 182 180 179 179 179 181 185 187 189 193 194 192 190 189 189 189 188 188 188 189 190 191 191 190 191 191 193 197 198 198 200 202 204 207 214 219 223 226 229 231 230 228 227 228 230 231 229 225 222 223 230 236 239 240 241 244 239 228 225 224 223 224 225 235 251 276 293 329 359 12 55 72 49 35 159
214 209 216 218 217 232 233 229 252 227 219 223 219 227 239 224 183 185 188 187 193 191 179 180 181 180 182 185 188 190 194 197 193 190 189 189 190 189 188 188 188 190 191 191 191 191 193 193 194 197 198 198 197 198 198 201 210 216 220 223 227 231 232 230 229 228 231 233 231 228 228 227 232 236 236 237 237 240 240 231 228 226 228 229 228 234 247 259 281 319 329 341 49 74 36 24 179
226 211 220 227 226 234 230 226 250 262 251 235 227 234 240 236 208 192 191 192 196 191 181 182 184 184 186 188 191 194 197 197 188 188 190 190 191 190 189 188 188 190 190 190 190 192 194 194 195 196 197 196 195 195 198 200 206 210 213 216 221 227 230 231 229 228 230 232 230 229 231 233 235 236 236 235 233 236 238 233 230 229 230 232 234 237 247 263 275 297 298 295 50 124 7 351 176
242 218 219 226 226 238 247 249 263 257 258 249 236 244 244 241 225 199 187 193 199 195 188 186 188 189 190 191 194 196 194 188 185 188 190 191 192 191 190 189 189 190 190 190 191 193 194 195 197 197 196 197 198 200 202 203 208 211 212 216 219 222 227 230 229 229 229 230 230 228 231 236 237 237 237 235 233 234 234 234 231 228 229 231 236 240 243 256 267 288 291 277 280 235 293 273 180
239 237 231 232 214 244 265 257 254 245 251 255 247 254 254 249 233 205 190 196 204 202 195 190 189 189 192 194 194 191 187 185 188 188 188 191 193 192 192 192 192 192 191 191 193 194 194 196 198 198 196 198 201 205 208 209 213 216 216 219 220 219 226 230 229 230 230 231 231 228 230 235 238 238 237 236 235 234 234 235 233 229 228 229 236 242 242 244 247 256 255 237 251 232 235 229 186
234 235 234 231 200 226 243 213 186 241 251 265 269 265 262 257 234 208 200 203 205 206 204 198 192 191 194 195 191 188 186 187 189 189 189 191 193 194 194 194 193 193 193 193 194 193 194 195 196 197 198 201 205 209 213 213 216 218 218 221 223 223 228 232 233 235 234 233 233 231 230 233 238 239 237 238 237 237 237 236 236 232 230 231 236 242 242 242 240 240 237 229 228 220 213 204 192
227 232 236 233 221 231 247 301 337 284 251 252 264 269 261 243 233 220 205 208 210 208 206 205 203 201 196 191 190 192 191 189 188 189 190 191 194 195 195 194 193 194 195 194 194 194 195 196 197 199 202 205 209 211 213 213 213 214 213 215 220 222 226 228 229 231 231 231 232 232 231 232 237 239 238 239 240 241 241 239 239 237 235 236 237 240 241 240 239 239 242 235 230 225 214 202 197
223 227 233 237 240 240 255 279 292 282 247 223 223 253 254 218 226 228 198 201 213 209 204 208 208 201 196 194 194 195 195 195 193 191 191 191 193 194 194 195 194 196 197 196 195 196 196 196 197 200 202 205 208 210 211 209 209 208 205 201 201 205 207 212 218 221 223 226 226 228 230 230 235 239 238 240 242 244 245 242 241 239 239 240 239 240 240 238 236 234 243 242 232 231 224 212 203
231 221 221 228 240 243 248 257 260 258 257 249 221 249 258 211 220 223 196 197 209 206 206 211 207 198 201 202 198 195 196 197 197 196 194 192 192 193 195 195 196 198 197 196 195 196 196 195 196 199 201 203 205 207 208 207 205 204 205 203 200 201 201 210 220 222 222 224 224 226 228 230 233 236 238 241 244 246 247 245 243 242 240 241 240 240 238 238 236 228 238 243 232 231 224 218 213
234 195 187 208 227 234 239 245 246 255 279 283 256 248 268 255 227 209 199 205 210 205 208 213 207 202 206 206 202 199 198 196 195 195 195 194 194 194 196 196 197 198 196 194 194 195 195 194 197 199 201 203 203 205 207 207 204 202 205 205 202 206 208 214 222 222 223 226 225 226 229 231 233 234 236 241 245 248 249 247 246 245 242 242 242 241 238 238 237 231 234 238 232 230 224 221 218
231 162 170 200 218 227 233 240 245 255 271 265 244 223 255 257 223 168 198 212 216 209 210 212 206 205 207 207 206 202 199 197 196 196 195 195 196 197 198 196 196 197 196 196 194 194 193 193 198 200 201 202 204 206 207 207 207 205 205 203 203 210 211 214 219 220 222 225 225 227 230 231 233 234 236 240 244 247 250 250 249 248 246 247 246 243 240 237 236 234 233 234 234 232 227 225 224
213 163 186 210 218 221 224 231 241 247 248 252 238 206 234 260 233 191 197 211 216 211 213 215 208 208 209 207 208 203 198 198 198 199 197 196 198 198 197 196 195 196 197 197 194 192 192 192 196 199 201 202 203 206 206 206 207 206 206 205 205 208 209 209 212 214 219 220 222 226 229 231 233 234 237 240 243 245 250 251 250 251 249 250 250 245 242 240 238 237 236 235 236 235 232 230 231
191 182 206 212 213 215 220 224 227 238 241 244 238 215 222 259 246 210 204 201 200 201 211 215 210 212 213 211 211 205 199 198 198 199 198 198 199 197 196 196 195 195 195 195 193 192 192 192 195 198 201 201 201 205 206 205 206 206 207 207 208 208 206 205 205 207 213 215 217 221 226 229 231 233 236 240 242 244 248 251 250 251 251 251 252 249 246 243 240 241 241 238 237 239 237 235 238
198 201 212 208 200 195 212 211 207 232 241 234 230 218 221 245 243 213 203 183 187 203 209 209 208 212 213 212 212 206 201 199 196 198 198 196 196 196 197 198 196 193 193 193 192 192 192 192 193 195 198 200 201 203 204 204 204 204 206 208 210 209 206 205 204 204 209 212 214 217 222 226 229 232 235 238 240 242 246 250 250 248 246 248 252 251 250 246 242 243 243 240 239 241 241 240 241
209 209 206 208 208 195 211 209 207 231 239 225 218 212 222 245 252 232 220 196 201 213 213 206 205 208 211 211 210 206 203 199 194 194 195 193 194 194 195 195 193 191 192 192 192 193 192 191 191 193 197 199 200 201 202 203 203 203 206 208 210 209 208 209 208 206 210 213 213 215 219 222 226 230 232 235 238 240 243 248 251 249 247 249 252 252 254 253 249 247 246 244 242 242 243 244 246
205 205 201 206 204 205 217 216 222 233 235 227 207 206 233 253 255 229 226 228 221 220 223 214 205 206 208 208 208 205 202 200 195 192 194 195 194 193 194 194 190 190 192 192 193 193 192 190 191 193 196 198 199 200 201 202 203 205 207 208 209 209 208 210 210 209 211 216 217 217 219 221 224 228 231 235 238 239 241 244 249 253 253 253 253 252 254 257 255 250 249 249 246 245 244 245 251
205 203 206 212 207 213 218 214 226 235 237 212 186 191 226 231 236 207 219 230 224 218 224 220 211 209 206 205 206 205 203 200 196 193 195 197 195 192 194 193 190 190 192 193 192 191 189 188 189 192 194 195 197 199 200 201 203 205 207 208 208 209 209 209 211 211 213 217 219 219 222 223 225 230 233 237 240 240 239 240 244 250 253 254 252 250 251 254 253 246 246 248 247 246 244 244 251
206 195 208 218 212 215 222 228 236 241 254 223 192 212 244 252 303 291 230 235 226 217 217 215 214 209 202 206 206 204 205 200 196 195 196 197 193 189 191 192 191 191 192 193 192 189 188 187 189 192 193 194 196 198 200 202 203 204 206 207 208 210 210 208 210 214 216 219 220 221 224 227 229 232 236 239 241 241 240 240 242 246 250 252 252 250 248 250 252 245 239 241 241 242 242 243 247
200 198 214 215 203 211 228 240 235 233 252 234 198 233 250 270 279 256 220 234 232 221 217 215 215 201 192 204 206 204 205 200 198 198 197 194 189 188 192 193 192 192 192 193 191 188 187 188 189 191 192 193 195 198 200 202 203 203 205 207 208 208 210 209 211 215 216 218 221 223 225 228 231 233 237 239 240 241 241 241 242 244 248 250 252 252 248 249 251 246 237 237 236 238 241 242 244
208 207 204 183 193 212 227 237 221 221 240 227 193 231 239 235 252 225 202 217 229 220 216 219 215 196 194 205 205 204 203 199 199 198 194 190 187 189 192 194 195 194 193 192 189 187 187 189 190 191 191 193 195 197 198 200 201 202 204 206 207 208 209 210 211 213 213 213 218 222 223 227 231 233 235 237 238 241 242 242 243 244 247 249 251 251 249 248 249 245 237 239 238 236 239 242 244
221 251 199 178 205 210 206 222 227 225 237 235 210 227 239 232 235 222 204 212 223 220 213 218 210 195 202 210 206 205 203 199 199 197 191 188 189 191 192 195 196 194 193 191 189 188 190 191 192 193 194 194 195 196 197 199 200 201 203 205 207 209 209 209 209 209 210 212 215 219 221 225 229 231 233 236 237 239 241 243 244 245 246 248 250 250 249 248 246 242 236 240 239 234 237 241 241
217 253 240 215 222 214 204 212 226 229 236 242 221 217 237 236 230 243 227 213 218 219 213 216 207 196 202 208 206 204 200 199 199 197 194 190 192 193 193 195 195 192 190 189 189 191 193 193 192 194 195 194 194 195 195 197 199 200 202 204 206 208 209 208 208 210 213 215 216 218 221 224 227 229 232 234 236 238 240 243 244 244 244 245 247 248 248 247 245 238 234 238 238 235 238 239 240
204 235 239 229 224 219 216 216 218 226 234 236 227 225 237 229 202 231 241 225 217 217 216 216 204 198 203 205 205 201 196 199 200 197 196 194 193 195 195 194 193 190 188 187 190 192 193 193 193 194 194 193 194 195 195 196 198 198 200 202 204 206 208 208 209 212 215 216 216 219 221 222 225 229 230 232 234 237 240 243 243 242 242 243 246 247 246 247 245 239 233 236 239 239 239 240 241
293 253 253 259 255 236 226 220 211 219 234 231 233 245 247 218 174 220 233 228 220 215 214 218 208 200 204 205 203 198 194 198 200 198 197 195 192 194 194 191 188 187 186 186 190 192 192 193 194 193 193 193 194 195 195 195 195 196 200 202 203 204 207 208 207 210 213 213 215 220 222 222 224 228 231 231 233 236 239 241 241 241 242 243 245 246 245 245 245 242 236 233 234 235 236 239 240